OpenBCM V1.13 (Linux)

Packet Radio Mailbox

DB0FHN

[JN59NK Nuernberg]

 Login: GUEST





  
I0OJJ  > KEPS     06.12.24 07:22l 359 Lines 17178 Bytes #999 (0) @ AMSAT
BID : ORB24341.1
Read: DJ6UX GUEST
Subj: 2Line Orbital Elements 24341.AMSAT
Path: DB0FHN<DB0FFL<OE5XBL<OE6XPE<DB0ERF<DK0WUE<PD0LPM<I0OJJ
Sent: 241206/0514z @:I0OJJ.ITA.EU [Rome] obcm1.08-6-g5b69
From: I0OJJ @ I0OJJ.ITA.EU (Gustavo)
To:   KEPS @ AMSAT
X-Info: Sent with login password


QST de W1STR

AMSAT Orbital Elements for Amateur Satellites in TLE Format
From Orbital Analysis Office
New England Sci-Tech STEM Education Center
Natick, MA December 06, 2024
To all radio amateurs


These element sets describe the orbits of various satellites 
in use by the amateur radio community. For details see:
www.amsat.org/keplerian-elements-formats/

A daily update of element sets is available at:
www.amsat.org/tle/daily-bulletin.txt
or without bulletin text:
www.amsat.org/tle/dailytle.txt


AO-07
1 07530U 74089B   24340.87650015 -.00000031  00000-0  95576-4 0  9999
2 07530 101.9898 337.2024 0012361 116.1082 312.1672 12.53683387290791
UO-11
1 14781U 84021B   24340.84012418  .00003708  00000-0  40780-3 0  9997
2 14781  97.7300 305.3379 0006556 222.1532 137.9181 14.88190525195006
AO-27
1 22825U 93061C   24340.40450784  .00000421  00000-0  17820-3 0  9991
2 22825  98.7661  34.7799 0007465 302.0160  58.0297 14.30673765627098
FO-29
1 24278U 96046B   24340.58208995  .00000050  00000-0  83545-4 0  9991
2 24278  98.5875 252.7978 0350954 104.3186 259.7183 13.53223992397616
NOAA-15
1 25338U 98030A   24340.77844685  .00000460  00000-0  20724-3 0  9991
2 25338  98.5538   4.2235 0010291 177.1697 182.9543 14.26817420381906
GO-32
1 25397U 98043D   24340.80775967  .00000330  00000-0  16322-3 0  9995
2 25397  98.9472 310.3130 0002021  51.9046 308.2314 14.24205602372063
ISS
1 25544U 98067A   24340.66404067  .00017729  00000-0  31492-3 0  9994
2 25544  51.6381 185.8361 0007043 305.3104 164.1439 15.50252031485142
NO-44
1 26931U 01043C   24340.81665389  .00000640  00000-0  27142-3 0  9997
2 26931  67.0510 248.0629 0006919 260.9089  99.1230 14.31530110210671
SO-50
1 27607U 02058C   24340.60062387  .00003272  00000-0  44094-3 0  9990
2 27607  64.5556  54.1219 0033901  25.9087 334.3706 14.80451231181896
CO-55
1 27844U 03031E   24340.46041004  .00001088  00000-0  49582-3 0  9992
2 27844  98.6781 345.1636 0009948  14.2846 345.8612 14.23683881112152
CO-57
1 27848U 03031J   24340.53542669  .00000859  00000-0  40018-3 0  9997
2 27848  98.6808 345.3775 0010142  29.9817 330.1941 14.23064497111901
RS-22
1 27939U 03042A   24340.82107161  .00003388  00000-0  55618-3 0  9998
2 27939  98.3077 140.1223 0010762 235.3036 232.1966 14.71321268133503
NOAA-18
1 28654U 05018A   24340.81383405  .00000506  00000-0  29232-3 0  9996
2 28654  98.8617  56.2576 0013297 298.1236  61.8592 14.13443820  7503
CO-58
1 28895U 05043F   24340.33007947  .00005315  00000-0  90204-3 0  9992
2 28895  98.2239 116.8603 0015229 173.3704 186.7705 14.69550803 19573
CO-65
1 32785U 08021C   24340.55991391  .00010932  00000-0  86475-3 0  9999
2 32785  97.7717 305.1058 0012907 125.2961 234.9472 15.00741319901149
AAUSAT2
1 32788U 08021F   24340.45601067  .00074904  00000-0  21348-2 0  9995
2 32788  97.6049 323.2216 0002113  33.3021 326.8354 15.35794247904521
CO-66
1 32791U 08021J   24340.38582964  .00021382  00000-0  12819-2 0  9990
2 32791  97.7110 311.5713 0007703  85.1201 275.0908 15.10961204902308
RS-30
1 32953U 08025A   24340.81651378  .00000037  00000-0  19107-3 0  9990
2 32953  82.5030 342.7341 0020671  90.7241 269.6207 12.43154595750457
PRISM
1 33493U 09002B   24340.46413398  .00088232  00000-0  22527-2 0  9997
2 33493  98.1776  44.7683 0007850  12.4463 347.6973 15.39120780865187
NOAA-19
1 33591U 09005A   24340.79046476  .00000447  00000-0  26304-3 0  9994
2 33591  99.0256  38.2313 0014091 165.0102 195.1490 14.13221033815861
SRMSAT
1 37841U 11058D   24340.32121243  .00000729  00000-0  25313-3 0  9994
2 37841  19.9705 201.5760 0011797 176.0746 339.6697 14.11303001678764
RS-40
1 38735U 12041C   24340.83492270  .00000049  00000-0  28410-3 0  9993
2 38735  82.4774  62.8524 0017415 201.7272 158.3070 12.42621565560588
ZACUBE-1
1 39417U 13066B   24340.45830732  .00012150  00000-0  11443-2 0  9999
2 39417  97.7573 293.2036 0045972 314.9426  44.8069 14.93173625597109
Delfi-N3xt
1 39428U 13066N   24340.73521078  .00014347  00000-0  16220-2 0  9990
2 39428  97.8365 255.0724 0089995 250.6149 108.5320 14.83647503591654
GOMX-1
1 39430U 13066Q   24340.68486929  .00004396  00000-0  70366-3 0  9997
2 39430  97.7039 204.6434 0137296  66.8226 294.7375 14.66082323588156
LO-74
1 39440U 13066AA  24340.40715823  .00010054  00000-0  10872-2 0  9999
2 39440  97.8314 280.8918 0067966  73.4554 287.4113 14.86782551593743
AO-73
1 39444U 13066AE  24340.83027008  .00015260  00000-0  12949-2 0  9992
2 39444  97.7420 297.2706 0041325 290.3361  69.3423 14.97345338596337
DTUSAT-2
1 40030U 14033W   24340.38911107  .00015169  00000-0  11167-2 0  9991
2 40030  98.0321 298.1534 0009805 340.5859  19.4990 15.03428038568375
EO-80
1 40032U 14033Y   24340.81851707  .00013984  00000-0  10279-2 0  9996
2 40032  98.0241 298.5011 0006496 269.8288  90.2191 15.03526102568937
XW-2C
1 40906U 15049H   24340.84382444  .00130898  00000-0  11377-2 0  9998
2 40906  97.4563   4.5348 0006066  55.2007 304.9824 15.68639673511108
LILACSAT-2
1 40908U 15049K   24340.85064788  .00018053  00000-0  57756-3 0  9999
2 40908  97.5195 351.4576 0012904 101.4240 258.8452 15.32394098509729
IO-86
1 40931U 15052B   24337.09180034  .00002217  00000-0  20975-3 0  9992
2 40931   5.9986 232.5457 0013173 302.5393  57.3463 14.78392648496340
ChubuSat-2
1 41338U 16012B   24340.48789536  .00010791  00000-0  60410-3 0  9994
2 41338  31.0018   5.3934 0010877 161.9771 198.1254 15.12131718483514
ChubuSat-3
1 41339U 16012C   24340.51819329  .00009656  00000-0  55561-3 0  9992
2 41339  31.0084   5.0642 0010985 164.1737 195.9246 15.11118135483487
Horyu-4
1 41340U 16012D   24340.56855552  .00029424  00000-0  11253-2 0  9991
2 41340  31.0009 292.0811 0009634 281.9076  78.0487 15.25365966484250
Lapan A3
1 41603U 16040E   24340.81067128  .00006221  00000-0  23268-3 0  9996
2 41603  97.1392 346.9888 0010541 202.8243 157.2529 15.27616424469407
Pratham
1 41783U 16059A   24340.60119580  .00002046  00000-0  38138-3 0  9995
2 41783  97.8293 351.9210 0031617 193.9674 166.0659 14.65739159437648
CAS-2T
1 41847U 16066G   24340.78721202  .00002490  00000-0  36521-3 0  9990
2 41847  98.4433  50.7877 0350063  20.2618 341.2075 14.42504618424228
CAS-4B
1 42759U 17034B   24340.42522238  .00045469  00000-0  10868-2 0  9996
2 42759  43.0153 331.1005 0012812  77.3848 282.8440 15.40689052413690
CAS-4A
1 42761U 17034D   24340.40730204  .00047138  00000-0  11148-2 0  9998
2 42761  43.0187 329.3554 0013630  86.5765 273.6651 15.40983973413698
D-SAT
1 42794U 17036AF  24340.38460393  .00014519  00000-0  90349-3 0  9990
2 42794  97.4959 316.5812 0099240 286.0861  72.9457 15.05628262406430
TechnoSat
1 42829U 17042E   24340.47340758  .00007825  00000-0  64392-3 0  9999
2 42829  97.3857 152.3261 0011891 215.7566 144.2863 14.99311081402818
AO-91
1 43017U 17073E   24340.15469960  .00014443  00000-0  79797-3 0  9994
2 43017  97.5487 209.9561 0194773  79.3473 282.9618 14.99180602381225
S-Net D
1 43186U 18014G   24340.71557275  .00009946  00000-0  64297-3 0  9997
2 43186  97.5763 239.7781 0011073 132.1280 228.0891 15.08358040374320
S-Net B
1 43187U 18014H   24340.25457236  .00011126  00000-0  71897-3 0  9990
2 43187  97.5771 239.2848 0011861 130.1464 230.0805 15.08335152374255
S-Net A
1 43188U 18014J   24340.71649758  .00009951  00000-0  64310-3 0  9999
2 43188  97.5775 239.8686 0011813 129.1817 231.0462 15.08361223374329
S-Net C
1 43189U 18014K   24340.45562819  .00010911  00000-0  70480-3 0  9996
2 43189  97.5793 239.5925 0013586 124.6538 235.5973 15.08337009372837
Ten-Koh
1 43677U 18084G   24340.44074630  .00006956  00000-0  58535-3 0  9994
2 43677  98.0788 139.5285 0013443 168.9493 191.2026 14.98512756332341
PO-101
1 43678U 18084H   24340.77442455  .00003303  00000-0  29392-3 0  9997
2 43678  98.0869 144.1848 0008537 177.0379 183.0894 14.96787649332571
QO-100
1 43700U 18090A   24340.52409097  .00000163  00000-0  00000-0 0  9991
2 43700   0.0162   8.5108 0001934 285.1512 355.6335  1.00271243 22079
MinXSS-2
1 43758U 18099A   24340.13395449  .00026295  00000-0  13339-2 0  9990
2 43758  97.5309  40.4885 0015183  89.3185 270.9787 15.16807635328626
AO-95
1 43770U 18099N   24340.40217371  .00017299  00000-0  10215-2 0  9995
2 43770  97.5215  34.9837 0013167 132.7580 227.4760 15.11505279328377
RANGE-B
1 43772U 18099Q   24340.45580332  .00031965  00000-0  15173-2 0  9996
2 43772  97.5012  39.4800 0004750  41.9177 318.2420 15.19176143328638
RANGE-A
1 43773U 18099R   24340.09808713  .00011165  00000-0  76996-3 0  9994
2 43773  97.4768  27.9900 0013267 109.6131 250.6529 15.05905959328127
MOVE-II
1 43780U 18099Y   24340.16674824  .00060294  00000-0  19199-2 0  9992
2 43780  97.4962  43.0477 0005236  98.6582 261.5253 15.32336376328949
SNUSat 2
1 43782U 18099AA  24340.42019617  .00015728  00000-0  97362-3 0  9997
2 43782  97.4900  33.1382 0014716  78.1040 282.1839 15.09792215328360
SnugLite
1 43784U 18099AC  24340.40282691  .00017457  00000-0  10250-2 0  9992
2 43784  97.4717  32.4349 0005390  85.5338 274.6508 15.11768613328450
ITASat 1
1 43786U 18099AE  24340.65600212  .00011773  00000-0  75086-3 0  9998
2 43786  97.4858  33.3396 0016843 124.4026 235.8798 15.08737954328384
EAGLET 1
1 43790U 18099AJ  24340.65658659  .00008584  00000-0  58917-3 0  9991
2 43790  97.5048  33.7421 0014107 105.1239 255.1550 15.06144631328054
ESEO
1 43792U 18099AL  24340.59993415  .00004075  00000-0  32091-3 0  9994
2 43792  97.4842  29.2242 0010114  73.2455 286.9879 15.01297431327908
CSIM
1 43793U 18099AM  24340.46694414  .00067484  00000-0  21741-2 0  9990
2 43793  97.5111  45.2001 0009004  73.1144 287.1084 15.31901486328839
